Regional Weather Roundup
Issued by NWS

Home | Current Version | Previous Version | Graphics & Text | Print | Product List | Glossary On
Versions: 1 2 3 4 5 6 7 8 9 10 11 12 13 14 15 16 17 18 19 20 21 22 23 24 25 26 27 28 29 30 31 32 33 34 35 36 37 38 39 40 41 42 43 44 45 46 47 48 49 50
000
ASUS43 KFSD 292010
RWRSD

WEATHER ROUNDUP FOR SOUTH DAKOTA
NATIONAL WEATHER SERVICE SIOUX FALLS SD
300 PM CDT WED OCT 29 2014

NOTE: "FAIR" INDICATES FEW OR NO CLOUDS BELOW 12,000 FEET WITH NO
SIGNIFICANT WEATHER AND/OR OBSTRUCTIONS TO VISIBILITY.


SDZ001>005-009-010-012>017-292100-
NORTHWEST AND NORTH CENTRAL SOUTH DAKOTA

CITY           SKY/WX    TMP DP  RH WIND       PRES   REMARKS
BUFFALO          N/A     56  34  43 W16       29.88F
FAITH            N/A     52  30  43 S6        29.96S
MOBRIDGE       CLOUDY    54  30  40 S12       29.94F
$$

SDZ012>016-024>037-041>051-057-063-072>074-292100-
SOUTHWEST AND SOUTH CENTRAL SOUTH DAKOTA

CITY           SKY/WX    TMP DP  RH WIND       PRES   REMARKS
RAPID CTY ARPT MOSUNNY   67  28  23 NE8       29.95F
PIERRE         MOSUNNY   59  28  30 SE10      29.96F
CUSTER         CLOUDY    57  22  25 CALM      30.00F
ELLSWORTH AFB  MOSUNNY   70  31  23 N10       29.95F
PHILIP         MOSUNNY   61  26  26 CALM      29.95F
PINE RIDGE     MOSUNNY   62  23  22 W10       29.97F
SPEARFISH      FAIR      55  30  38 NW16G24   30.03R
WINNER         FAIR      64  24  21 S15       29.97F
$$

SDZ004>011-016>023-039-040-292100-
NORTHEAST SOUTH DAKOTA

CITY           SKY/WX    TMP DP  RH WIND       PRES   REMARKS
ABERDEEN       MOSUNNY   49  30  48 S12       30.04F
WATERTOWN      SUNNY     44  32  62 S7        30.06F
SISSETON         N/A     44  31  60 VRB5      30.05F
$$

SDZ017-020-022-023-036>040-048>070-292100-
SOUTHEAST SOUTH DAKOTA

CITY           SKY/WX    TMP DP  RH WIND       PRES   REMARKS
SIOUX FALLS    MOSUNNY   49  32  52 S7        30.09F
HURON          SUNNY     50  29  44 S12       30.05F
CHAMBERLAIN    SUNNY     56  30  36 SE15      30.00F
MITCHELL       SUNNY     53  31  42 S9        30.06F
$$

ABBREVIATIONS USED IN REMARKS
   TC - TEMPERATURE IN CELSIUS
  WCI - WIND CHILL INDEX
   HX - HEAT INDEX
  VSB - VISIBILITY




USA.gov is the U.S. government's official web portal to all federal, state and local government web resources and services.